Location: Kra?nica
(53.4833°N, 14.6167°E)
Time: 21:39:18
(UTC+00:00)

AQUA - Pass Details

Date: 23 May 2024
Orbit: 693 x 697 km, 98.3° (Epoch: 21 June)

Event Time Altitude Azimuth Distance (km) Brightness Sun altitude
Rises 01:56:17 0° 14° (NNE) 3,089 8.4 -6.5°
Reaches altitude 10° 01:58:33 10° 13° (NNE) 2,167 7.5 -6.3°
Maximum altitude 02:03:18 79° 288° (WNW) 715 3.9 -5.8°
Drops below altitude 10° 02:08:00 10° 202° (SSW) 2,149 5.7 -5.4°
Enters shadow 02:09:15 - 202° (SSW) 2,656 6.2 -5.2°
